ONEWEB-0181, 48230

Orbit data source: Space-Track

ONEWEB-0181, 48230 is a payload satellite owned by One Web (NAA) (UK) in LEO that was launched on Sun, 25 Apr 2021 UTC via a SOYUZ-2-1B launch vehicle from the Vostochny Cosmodrome (VOSTO). Payload-class satellites include a variety of spacecraft equipped with specific instruments for various scientific and technological missions. These include communications satellites like Starlink; space stations such as the ISS; scientific satellites like the Hubble; Earth observation satellites from companies like Planet Labs, Umbra, and HawkEye 360; GPS; miniature CubeSats for education and research; and military/defense satellites.

Loading next visibility...
Identifier
48230, 2021-031W
Orbit
LEO
Country
Flag of UKUK
Related business
Manufacturer
One Web
Mission
Operational Commercial Communications
Bus & Motor
ARROW, Unknown motor
Mass
148 kg wet, ~140 kg dry
Launch date (UTC)
2021-04-25 (5 years ago)
Launch vehicle
SOYUZ-2-1B
Launch site
Vostochny Cosmodrome (VOSTO)
Object type
Payload
Rocket body
Debris
Shape & HBR
Trap Box + 2 Pan, 6.7 m
Radar Cross Section
3.464 m², Large (>1 m²)

Expand to show TLE details & history
Last TLE update: 2 days ago

TLE from 2 days ago
0 ONEWEB-0181
1 48230U 21031W   26171.36800814 -.00000051  00000-0 -17263-3 0  9991
2 48230  87.8958 289.0913 0002052 105.9206 254.2150 13.14503779248652
Epoch: 2026-06-20T08:49Z
TLE epoch observation values (Epoch: 2026-06-20T08:49:55.903Z)
Latitude
-0.00001°
Longitude
-111.97527°
Altitude
1,209.104 km
Speed
7.249 km/s
True Right ascension
19h 16m 21s
True Declination
0° 00' 00"
Sunlit
Object was in full shadow at epoch
Visualization orbit readout
Latitude
Unknown
Longitude
Unknown
Altitude
Unknown
Speed
Unknown
Apparent Right ascension
Unknown
Apparent Declination
Unknown
Sunlit
N/A
Visualization observer readout
Local Sidereal Time
21:40:59
Azimuth
Unknown
Elevation
Unknown
Doppler factor
Unknown
Orbital elements
Apogee altitude
1,204.456 km
Perigee altitude
1,201.345 km
Semi-major axis
7,581.037 km
Eccentricity
0.00021
Inclination
87.8958°
RAAN
289.0913°
Arg. of periapsis
105.9206°
True anomaly
254.19237°
Mean anomaly
254.215°
Eccentric anomaly
254.20369°
Mean motion
3.28814 °/min
Orbital period
109.48 mins
BSTAR
-0.00017263
Loading maneuver chart data...
Computing Atmospheric mass density...
Loading historical data...
Loading historical data...
Loading historical data...
Loading historical data...
Loading historical data...
Loading historical data...
Loading historical data...

Documentation

Showing up to 5 results
|